Flag for Germany Weather past 2 weeks in Rheda-Wiedenbrück, North Rhine-Westphalia, Germany

Now
59 °F

Partly cloudy.


Feels Like: 58 °F
Forecast: 51 / 69 °F
Wind: 8 mph from Southwest

Location: Paderborn / Lippstadt

Current Time: Sep 30, 2014 at 7:56:01 AM

Latest Report: Sep 30, 2014 at 7:20 AM


Visibility: N/A

Pressure: 30.24 "Hg

Humidity: 94%

Dew point: 57 °F

Location of Rheda-WiedenbrückLocation

Historic Weather in Rheda-Wiedenbrück — Graph

°F

Rheda-Wiedenbrück temperature yesterday

Maximum temperature yesterday: 72 °F (at 1:20 PM)
Minimum temperature yesterday: 57 °F (at 4:20 AM)
Average temperature yesterday: 64 °F

Past Weeks' High & Low Weather Summary

 TemperatureHumidityPressure
High73 °F (Sep 17, 4:20 PM)100% (Sep 15, 7:50 AM)30.39 "Hg (Sep 15, 7:50 AM)
Low43 °F (Sep 24, 7:20 AM)47% (Sep 29, 2:20 PM)29.83 "Hg (Sep 24, 5:20 PM)
Average59 °F82%30.06 "Hg
* Reported Sep 15 6:20 AM — Sep 30 6:50 AM, Rheda-Wiedenbrück, Weather by CustomWeather, © 2014

Note: Actual official high and low records may vary slightly from our data, if they occured in-between our weather recording intervals... More about our weather records

Advertising

Rheda-Wiedenbrück weather history for previous 24 hours

 ConditionsComfort  
Time TempWeatherWind HumidityBarometerVisibility
6:50 AM
Sep 30
59 °FPartly cloudy.8 mph94%30.24 "HgN/A
6:20 AM59 °FPartly cloudy.7 mph94%30.24 "HgN/A
5:50 AM59 °FPassing clouds.6 mph94%30.24 "HgN/A
5:20 AM59 °FPassing clouds.7 mph94%30.21 "HgN/A
4:50 AM59 °FPassing clouds.5 mph94%30.21 "HgN/A
4:20 AM59 °FPassing clouds.7 mph94%30.21 "HgN/A
3:50 AM57 °FPassing clouds.5 mph100%30.21 "HgN/A
11:50 PM
Sep 29
59 °FLight rain. Partly cloudy.3 mph100%30.24 "Hg4 mi
11:20 PM59 °FRain. Partly cloudy.2 mph100%30.24 "Hg4 mi
10:50 PM59 °FRain. Partly cloudy.1 mph100%30.24 "Hg5 mi
10:20 PM61 °FRain. Passing clouds.1 mph94%30.24 "Hg5 mi
9:50 PM61 °FClear.5 mph94%30.24 "Hg10 mi
9:20 PM63 °FPartly cloudy.3 mph83%30.24 "HgN/A
8:50 PM63 °FPartly cloudy.6 mph77%30.24 "HgN/A
8:20 PM63 °FPassing clouds.6 mph77%30.21 "HgN/A
7:50 PM64 °FMostly cloudy.6 mph73%30.21 "HgN/A
7:20 PM64 °FMore clouds than sun.7 mph73%30.21 "HgN/A
6:50 PM63 °FBroken clouds.7 mph77%30.21 "HgN/A
6:20 PM64 °FBroken clouds.7 mph73%30.21 "HgN/A
5:50 PM66 °FBroken clouds.8 mph68%30.21 "HgN/A
5:20 PM66 °FMore clouds than sun.8 mph64%30.21 "HgN/A
4:50 PM68 °FBroken clouds.8 mph60%30.21 "HgN/A
4:20 PM68 °FScattered clouds.9 mph60%30.21 "HgN/A
3:50 PM70 °FScattered clouds.9 mph57%30.21 "HgN/A
3:20 PM70 °FPassing clouds.9 mph53%30.18 "HgN/A
2:50 PM70 °FPassing clouds.12 mph53%30.21 "HgN/A
2:20 PM72 °FPassing clouds.12 mph47%30.18 "HgN/A
1:50 PM72 °FPassing clouds.7 mph50%30.18 "HgN/A
1:20 PM72 °FPassing clouds.7 mph53%30.21 "HgN/A
12:50 PM70 °FPassing clouds.7 mph57%30.21 "HgN/A
12:20 PM70 °FPassing clouds.7 mph57%30.21 "HgN/A
11:50 AM70 °FSunny.8 mph60%30.21 "Hg10 mi
11:20 AM68 °FPassing clouds.7 mph64%30.21 "HgN/A
10:50 AM66 °FPassing clouds.5 mph64%30.21 "HgN/A
10:20 AM64 °FPassing clouds.5 mph68%30.21 "HgN/A
9:50 AM63 °FPassing clouds.3 mph68%30.21 "HgN/A
9:20 AM59 °FSunny.1 mph77%30.21 "Hg10 mi
8:50 AM59 °FSunny.5 mph77%30.18 "Hg10 mi
8:20 AM57 °FClear.6 mph82%30.18 "Hg10 mi
7:50 AM57 °FClear.2 mph77%30.18 "Hg10 mi
7:20 AM59 °FClear.1 mph72%30.18 "Hg10 mi
Weather by CustomWeather, © 2014

See weather overviewHow to use our weather pages